Location: Berlin
(30.1713°N, 96.4458°W)
Time: 06:27:57
(UTC+00:00)

Daily predictions for brighter satellites

Satellite Brightness Start Highest point End
(mag) Time Altitude Azimuth Time Altitude Azimuth Time Altitude Azimuth
Cosmos 1025 Rocket 3.0 12:02:19 10° S 12:06:39 90° NNE 12:11:01 10° N
Cosmos 2278 Rocket 3.8 12:07:18 12° W 12:08:39 13° W 12:11:05 10° SW
CBERS-1 4.4 12:04:26 10° NNE 12:09:32 71° ESE 12:14:37 10° S
Cosmos 1943 Rocket 3.9 12:09:39 10° W 12:10:26 11° W 12:11:42 10° WSW
Cosmos 1674 Rocket 3.7 12:08:20 10° SSW 12:12:37 50° W 12:16:55 10° N
Cosmos 1943 3.2 12:07:50 10° SSW 12:13:22 62° WNW 12:18:56 10° NNE
Cosmos 2297 4.2 12:10:36 10° NNW 12:16:10 62° ENE 12:21:42 10° SSE
Cosmos 1603 4.4 12:11:05 10° S 12:16:42 61° ESE 12:22:22 10° NNE
USA 229 DEB 4.4 12:12:57 10° W 12:17:30 23° NW 12:22:26 10° N
USA 229 4.4 12:13:09 10° WSW 12:17:43 23° NW 12:22:39 10° N
Cosmos 1484 Rocket 2.6 12:16:02 10° N 12:19:26 51° WNW 12:22:49 10° SSW
BREEZE-M DEB (TANK) 3.3 12:17:27 10° W 12:19:37 23° NW 12:21:37 10° NNE
Helios 1A Rocket 2.9 12:17:18 10° S 12:20:29 39° W 12:23:39 10° NNW
Cosmos 2369 Rocket 2.5 12:15:24 10° NNW 12:21:05 72° ENE 12:26:46 10° SSE
Cosmos 1400 Rocket 2.5 12:17:38 10° N 12:21:17 76° W 12:24:54 10° S
Cosmos 2221 Rocket 3.7 12:19:57 10° SSW 12:24:23 61° W 12:28:53 10° N
Cosmos 371 Rocket 4.1 12:27:15 10° NW 12:31:28 31° W 12:35:39 10° SSW
SAR-Lupe-4 3.8 23:47:11 10° SSE 23:50:36 45° ENE 23:54:01 10° N
